Regional Weather Roundup
Issued by NWS

Home | Current Version | Previous Version | Text Only | Print | Product List | Glossary On
Versions: 1 2 3 4 5 6 7 8 9 10 11 12 13 14 15 16 17 18 19 20 21 22 23 24 25 26 27
000
ASUS42 KKEY 231010
RWRKEY

FLORIDA REGIONAL WEATHER ROUNDUP FOR THE FLORIDA KEYS
NATIONAL WEATHER SERVICE KEY WEST FLORIDA
600 AM EDT SUN APR 23 2017

...SOUTH FLORIDA AND THE KEYS...

CITY           SKY/WX    TMP DP  RH WIND       PRES   REMARKS
FORT MYERS     LGT RAIN N/A N/A N/A CALM      29.83R
SW REGIONAL AP HVY RAIN  70  67  90 N7        29.83S FOG
NAPLES         CLOUDY   N/A N/A N/A NE8       29.81S
MIAMI          LGT RAIN  76  73  91 SE12      29.81S
WEST KENDALL   CLOUDY    76  70  82 SE10      29.81R
HOMESTEAD      CLOUDY    75  74  97 SE8       29.80R
MARATHON       LGT RAIN  77  74  90 SE8       29.78F
BOCA CHICA NAS MOCLDY    73  72  94 SE12      29.79R
KEY WEST INTL  PTCLDY    76  73  91 SE10      29.79S

...INTERNATIONAL WEATHER...

CITY           SKY/WX    TMP DP  RH WIND       PRES   REMARKS
NASSAU BAHAMAS MOCLDY    79  66  65 E10       29.85F
CANCUN MEXICO  PTCLDY    70  70 100 CALM      29.81R
COZUMEL MEXICO   N/A    N/A N/A N/A MISG        N/A

ADJACENT COASTAL WATERS...

STATION/POSITION TIME  SKY/WX   TEMP    WIND        PRES    WAVE
                                AIR SEA DIR/SP/G            HT/PER
                 (UTC)          (F)     (DEG/KT/KT) (MB)    (FT/S)
PULASKI SHOAL LI 1000            75      CALM  /  1 1009.1F
SAND KEY         0950            75                 1009.2R
LONG KEY         0900            75 75  140/ 13/ 15 1009.1
MOLASSES REEF    1000            76 78  160/ 19/ 21 1009.0
FOWEY ROCKS      1000            75 77  140/ 23/ 25 1009.9R
Buoy 42097       1000                                 N/A     3/ 5

$$




USA.gov is the U.S. government's official web portal to all federal, state and local government web resources and services.